ROMMA est une association bénévole à but non lucratif. Votre soutien est indispensable : ADHERER à ROMMA ou FAIRE un DON

Lyon - (69, Rhône)

Plaine lyonnaise (169 m)   Longitude: 04° 49' 55" E   Latitude: 45° 43' 50" N Station partenaire n°124
 

Détail journalier du     <<     >>

Température Precipitation Humidité Pression Vent Dir Rafale Dir. rafale Ensol.
Heure (°C) (mm) (%) (hPa) (km/h) (km/h) (min)
01:00 11.708910192N5N0
02:00 11.908710193N8N0
03:00 11.808810192N10N0
04:00 12.607910194N10N0
05:00 12.007910194N10N0
06:00 10.008710203N8N0
07:00 10.009210201N6N0
08:00 10.708810212N6N0
09:00 11.408810212N5N0
10:00 12.708310221N5N0
11:00 15.307410223N11S30
12:00 17.006510224S11SE50
13:00 17.606110224SO13SE10
14:00 17.805910224SO10S20
15:00 16.706810224N19N0
16:00 17.806810224N10N20
17:00 18.606010223NE10NE30
18:00 17.606410222N6N0
19:00 16.807010212N5N20
20:00 14.007810222N6N0
21:00 12.2086102203N0
22:00 11.309010221N5N0
23:00 10.809210221N6N0
minuit 10.309310221N5N0

Graphique du 10-10-2019

 

Serveur OMMA